Regional Weather Roundup
Issued by NWS Cleveland, OH

Home | Current Version | Previous Version | Graphics & Text | Print | Product List | Glossary On
Versions: 1 2 3 4 5 6 7 8 9 10 11 12 13 14 15 16 17 18 19 20 21 22 23 24 25 26 27 28 29 30 31 32 33 34 35 36 37 38 39 40 41 42 43 44 45 46 47 48 49 50
000
ASUS41 KCLE 021300
RWRCLE
OHIO REGIONAL WEATHER ROUNDUP
NATIONAL WEATHER SERVICE WILMINGTON, OH
900 AM EDT WED SEP 02 2015

NOTE: "FAIR" INDICATES FEW OR NO CLOUDS BELOW 12,000 FEET WITH NO
SIGNIFICANT WEATHER AND/OR OBSTRUCTIONS TO VISIBILITY.

OHZ001>008-015>018-024>027-034-035-043-044-021400-
   NORTHWEST OHIO

CITY           SKY/WX    TMP DP  RH WIND       PRES   REMARKS
DEFIANCE       LGT RAIN  74  68  81 SW6       30.08F
FINDLAY        SUNNY     74  69  85 SW5       30.10R
TOLEDO EXPRESS SUNNY     72  68  87 SW6       30.08R
TOLEDO EXEC    SUNNY     73  67  81 SW8       30.09R
LIMA           SUNNY     72  67  84 SW5       30.12R
$$

OHZ009>014-019>023-028>033-038-089-021400-
   NORTHEAST OHIO

CITY           SKY/WX    TMP DP  RH WIND       PRES   REMARKS
CLE-HOPKINS    MOSUNNY   71  66  84 SW7       30.11S
CLE-LAKEFRONT  SUNNY     77  67  71 S6        30.07S
CUY CO. ARPT   MOSUNNY   79  70  73 W6        30.10S
LORAIN-ELYRIA  SUNNY     71  68  90 SW5       30.10S
ASHTABULA      SUNNY     72  69  90 S3        30.10S FOG
AKRON-CANTON   MOSUNNY   75  66  73 SW6       30.12S
WOOSTER        NOT AVBL
MANSFIELD      MOSUNNY   74  67  78 SW7       30.13S
YOUNGSTOWN     MOSUNNY   73  68  84 SW5       30.11S FOG
$$

OHZ042-051>053-060>062-070>072-077>081-021400-
  SOUTHWEST OHIO

CITY           SKY/WX    TMP DP  RH WIND       PRES   REMARKS
CINC-COVINGTON SUNNY     73  69  87 CALM      30.15R
CINC-LUNKEN    SUNNY     70  69  97 CALM      30.15S FOG
HAMILTON       SUNNY     72  69  90 CALM      30.15S FOG
DAYTON         NOT AVBL
WRIGHT-PAT AFB NOT AVBL
DAYTON GENERAL SUNNY     72  68  87 S3        30.14S FOG
WILMINGTON     SUNNY     72  67  84 CALM      30.15R HAZE
$$

OHZ036-037-039>041-045>050-054>059-063>069-073>076-082>088-021400-
  CENTRAL AND SOUTHEAST OHIO

CITY           SKY/WX    TMP DP  RH WIND       PRES   REMARKS
COLUMBUS       MOSUNNY   73  67  81 CALM      30.13R HAZE
OSU AIRPORT    LGT RAIN  73  65  75 NW5       30.13S
BOLTON FIELD   PTSUNNY   72  68  88 NW3       30.15R
RICKENBACK AFB NOT AVBL
NEWARK         SUNNY     72  68  87 CALM      30.13S FOG
MARION         PTSUNNY   72  67  84 SW3       30.13R HAZE
LANCASTER      SUNNY     73  67  81 CALM      30.14S
ZANESVILLE     SUNNY     70  66  87 CALM      30.14R FOG
NEW PHILLY     MOSUNNY   72  69  90 CALM      30.13S FOG
$$



USA.gov is the U.S. government's official web portal to all federal, state and local government web resources and services.